STARLINK-6163, 57128

Orbit data source: Space-Track

STARLINK-6163, 57128 is a payload satellite owned by SpaceX/Seattle (US) in LEO that was launched on Fri, 23 Jun 2023 UTC via an FALCON 9 launch vehicle from the Air Force Eastern Test Range (AFETR). Payload-class satellites include a variety of spacecraft equipped with specific instruments for various scientific and technological missions. These include communications satellites like Starlink; space stations such as the ISS; scientific satellites like the Hubble; Earth observation satellites from companies like Planet Labs, Umbra, and HawkEye 360; GPS; miniature CubeSats for education and research; and military/defense satellites.

Loading next visibility...
Identifier
57128, 2023-090AD
Orbit
LEO
Last TLE update
11 hours ago
Origin
Manufacturer
SpaceX/Seattle
Mission
Operational Commercial Communications
Bus & Motor
STARLINK, Unknown motor
Mass
305 kg wet, ~290 kg dry
Launch date (UTC)
2023-06-23 (2 years ago)
Launch vehicle
FALCON 9
Launch site
Air Force Eastern Test Range (AFETR)
Object type
Payload
Rocket body
Debris
Shape & HBR
Box + 1 Pan, 9 m
Radar Cross Section
11.087 m², Large (>1 m²)

Expand to show TLE details & history

TLE from 11 hours ago
0 STARLINK-6163
1 57128U 23090AD  25187.96552640 -.00000323  00000-0 -88110-5 0  9990
2 57128  43.0027 169.5359 0001159 287.4225  72.6491 15.02535595112312
Epoch: 2025-07-06T23:10Z
TLE epoch observation values (Epoch: 2025-07-06T23:10:21.48Z)
Latitude
-0.00001°
Longitude
-103.23526°
Altitude
558.619 km
Speed
7.584 km/s
True Right ascension
11h 18m 08s
True Declination
0° 00' 00"
Sunlit
Object was in daylight at epoch
Visualization orbit readout
Latitude
-20.03224°
Longitude
-128.61571°
Altitude
562.914 km
Speed
7.581 km/s
Apparent Right ascension
09h 52m 52s
Apparent Declination
-29° 28' 38"
Sunlit
Object is in daylight
Visualization observer readout
Local Sidereal Time
22:14:32
Azimuth
24.697° NE
Elevation
-78.657°
Doppler factor
1
Orbital elements
Apogee altitude
561.809 km
Perigee altitude
560.2 km
Semi-major axis
6,939.141 km
Eccentricity
0.00012
Inclination
43.0027°
RAAN
169.5359°
Arg. of periapsis
287.4225°
True anomaly
Unknown
Mean anomaly
72.6491°
Eccentric anomaly
Unknown
Mean motion
3.75478 °/min
Orbital period
95.88 mins
BSTAR
-0.000008811
Loading maneuver chart data...
Loading SW <> Apogee altitude chart data...
Loading historical data...
Loading historical data...
Loading historical data...
Loading historical data...
Loading historical data...
Loading historical data...
Loading historical data...

STARLINK-6163 Visibility forecast

Observer location: undefined°, undefined°

Span
Click to sort rows by Start time (UTC) header in descending order
Start Az.
Max El. time (UTC)
Max El. Az.
Max El.
End time (UTC)
End Az.
5 mins2025-07-08 00:52:28.845Z178.197° S2025-07-08 00:54:28.845Z147.834° SSE16.169°2025-07-08 00:57:28.845Z101.533° ESE
6 mins2025-07-08 02:32:28.845Z235.273° WSW2025-07-08 02:35:28.845Z113.807° SE41.348°2025-07-08 02:38:28.845Z75.453° E
6 mins2025-07-08 04:13:28.845Z283.156° WNW2025-07-08 04:15:28.845Z333.356° NNW39.576°2025-07-08 04:19:28.845Z72.968° E
6 mins2025-07-08 05:54:28.845Z294.145° NW2025-07-08 05:56:28.845Z343.671° N42.646°2025-07-08 06:00:28.845Z96.321° ESE
6 mins2025-07-08 07:34:28.845Z272.813° WNW2025-07-08 07:37:28.845Z203.017° SW32.98°2025-07-08 07:40:28.845Z143.946° SSE
|